Regional Weather Roundup
Issued by NWS

Home | Current Version | Previous Version | Graphics & Text | Print | Product List | Glossary On
Versions: 1 2 3 4 5 6 7 8 9 10 11 12 13 14 15 16 17 18 19 20 21 22 23 24 25 26 27 28 29 30 31 32 33 34 35 36 37 38 39 40 41 42 43 44 45 46 47 48 49 50
000
ASUS43 KBIS 270102
RWRND

NORTH DAKOTA REGIONAL WEATHER ROUNDUP
NATIONAL WEATHER SERVICE BISMARCK ND
800 PM CDT WED JUL 26 2017

NOTE: "FAIR" INDICATES FEW OR NO CLOUDS BELOW 12,000 FEET WITH NO
SIGNIFICANT WEATHER AND/OR OBSTRUCTIONS TO VISIBILITY.


NDZ001>003-009>011-017-270200-
NORTHWEST NORTH DAKOTA

CITY           SKY/WX    TMP DP  RH WIND       PRES   REMARKS
WILLISTON      SUNNY     89  45  21 S3        30.05F
MINOT          SUNNY     81  53  37 E9        30.10S
MINOT AFB      SUNNY     80  53  38 E9        30.09S
$$

NDZ018>021-031>035-040>046-270200-
SOUTHWEST NORTH DAKOTA

CITY           SKY/WX    TMP DP  RH WIND       PRES   REMARKS
BISMARCK       MOSUNNY   83  50  31 E9        30.09S
DICKINSON      SUNNY     81  52  36 SE8       30.07S
GARRISON         N/A     80  52  37 E8        30.10S
HETTINGER ARPT SUNNY     86  50  28 SE9       30.10F
$$

NDZ004>008-012>016-024-026-027-054-270200-
NORTHEAST NORTH DAKOTA

CITY           SKY/WX    TMP DP  RH WIND       PRES   REMARKS
GRAND FORKS    MOSUNNY   79  62  56 N9        30.05S
GRND FRKS AFB  SUNNY     76  59  55 N7        30.07S
DEVILS LAKE    SUNNY     77  57  50 NE7       30.11S
$$

NDZ022-023-025-028>030-036>039-047>053-270200-
SOUTHEAST NORTH DAKOTA

CITY           SKY/WX    TMP DP  RH WIND       PRES   REMARKS
FARGO          CLEAR     78  60  53 N8        30.05S
JAMESTOWN      MOSUNNY   77  57  50 N7        30.09S
$$





USA.gov is the U.S. government's official web portal to all federal, state and local government web resources and services.